Regional Weather Roundup
Issued by NWS

Home | Current Version | Previous Version | Text Only | Print | Product List | Glossary On
Versions: 1 2 3 4 5 6 7 8 9 10 11 12 13 14 15 16 17 18 19 20 21 22 23 24 25 26 27 28 29 30 31 32 33 34 35 36 37 38 39 40 41 42 43 44 45 46 47 48 49 50
000
ASUS43 KMKX 301400
RWRWI

WISCONSIN REGIONAL WEATHER ROUNDUP
NATIONAL WEATHER SERVICE MILWAUKEE/SULLIVAN WI
900 AM CDT FRI SEP 30 2016

NOTE: "FAIR" INDICATES FEW OR NO CLOUDS BELOW 12,000 FEET WITH NO
SIGNIFICANT WEATHER AND/OR OBSTRUCTIONS TO VISIBILITY.

WIZ001-002-006>008-014>016-023>028-301500-
NORTHWEST WISCONSIN

CITY           SKY/WX    TMP DP  RH WIND       PRES   REMARKS
SUPERIOR ARPT  CLOUDY    54  50  86 E7        30.44S
ASHLAND        CLOUDY    55  52  89 E10       30.44F
HAYWARD        CLOUDY    51  48  89 NE6       30.41F
SIREN          CLOUDY    50  49  94 E3        30.42S
CUMBERLAND     PTSUNNY   48  46  93 NE6       30.40S
RICE LAKE      CLOUDY    50  49  97 N8        30.40F FOG
CHETEK         NOT AVBL
LADYSMITH      CLOUDY    49  49  97 N6        30.41F
EAU CLAIRE     NOT AVBL
MENOMONIE      SUNNY     51  51  99 N5        30.38F
NEW RICHMOND   SUNNY     51  51 100 CALM      30.39S
OSCEOLA        FOG       48  48 100 CALM      30.42S VSB<1/4
$$

WIZ003>005-009-010-017-018-301500-
NORTH CENTRAL WISCONSIN

CITY           SKY/WX    TMP DP  RH WIND       PRES   REMARKS
MANITOWISH WTR NOT AVBL
ARBOR VITAE    CLOUDY    52  51  97 NE7       30.41S FOG
WOODRUFF       CLOUDY    52  51  97 NE7       30.41S FOG
RHINELANDER    SUNNY     52  52 100 VRB7      30.39F
EAGLE RIVER    FOG       49  49 100 N7        30.41S VSB 3/4
LAND O LAKES   CLOUDY    50  50 100 N8        30.43F FOG
PHILLIPS       CLOUDY    47  47 100 NE7       30.40S FOG
TOMAHAWK       SUNNY     48  47  98 CALM      30.39F
MEDFORD        MOSUNNY   49  49 100 NE9       30.35F
MERRILL        CLOUDY    52  50  94 N6        30.36F
$$

WIZ029-030-035-036-043>047-301500-
CENTRAL WISCONSIN

CITY           SKY/WX    TMP DP  RH WIND       PRES   REMARKS
WAUSAU         CLOUDY    54  49  83 VRB6      30.32F
MOSINEE        PTSUNNY   55  52  88 N9        30.33F
MARSHFIELD     CLOUDY    58  49  72 NE12      30.32F
STEVENS POINT  PTSUNNY   52  51  94 N7        30.32F
WAUPACA        CLOUDY    59  55  88 N7        30.30S
WAUTOMA        CLOUDY    58  54  86 N9        30.29R
WISC RAPIDS    CLOUDY    56  52  86 NE8       30.31F
CAMP DOUGLAS   NOT AVBL
$$

WIZ011>013-019>022-031-037>040-048>050-301500-
NORTHEAST WISCONSIN

CITY           SKY/WX    TMP DP  RH WIND       PRES   REMARKS
ANTIGO         CLOUDY    54  51  89 NE12G18   30.35F
SHAWANO        PTSUNNY   59  54  84 NE13      30.32S
OCONTO         NOT AVBL
STURGEON BAY   CLOUDY    62  57  83 NE13      30.30F
GREEN BAY      LGT RAIN  61  59  93 NE21G28   30.28S
MANITOWOC      LGT RAIN  61  57  88 NE8       30.27S
APPLETON       CLOUDY    57  57 100 NE14G20   30.27S
CLINTONVILLE   CLOUDY    55  52  88 NE10G17   30.30F
OSHKOSH        CLOUDY    60  56  86 N12       30.26R
$$

WIZ032>034-041-042-053>061-301500-
SOUTHWEST WISCONSIN

CITY           SKY/WX    TMP DP  RH WIND       PRES   REMARKS
LA CROSSE      CLOUDY    56  53  90 NW7       30.31F
SPARTA         CLOUDY    52  50  92 N3        30.32F
VIROQUA        PTSUNNY   55  52  90 N8        30.29F
BOSCOBEL       CLOUDY    59  54  83 N3        30.28S
PRAIRIE DU CHI CLOUDY    58  52  80 N5        30.27S
PLATTEVILLE    CLOUDY    58  57  98 N8        30.25S
$$

WIZ056-057-062-063-064-067-068-301500-
SOUTH CENTRAL WISCONSIN

CITY           SKY/WX    TMP DP  RH WIND       PRES   REMARKS
REEDSBURG      NOT AVBL
BARABOO/DELLS  CLOUDY    57  53  87 NE10      30.27S
LONE ROCK      NOT AVBL
MINERAL POINT  NOT AVBL
MADISON        CLOUDY    58  56  93 N13       30.23F
MIDDLETON      CLOUDY    59  58  97 NE6       30.25S
WATERTOWN      CLOUDY    59  59 100 NE8       30.22F
MONROE         CLOUDY    55  55 100 N12       30.21F
JANESVILLE     CLOUDY    63  57  82 N8G17     30.20S
$$

WIZ051-052-058>065-066-070>072-301500-
SOUTHEAST WISCONSIN

CITY           SKY/WX    TMP DP  RH WIND       PRES   REMARKS
MILWAUKEE      LGT RAIN  61  58  90 NE13G24   30.21F FOG
WAUKESHA       LGT RAIN  57  55  94 NE8G18    30.23S
MILWAUKEE/TIMM LGT RAIN  59  55  88 NE13      30.23S
RACINE         LGT RAIN  61  58  90 NE15      30.20F
BURLINGTON     CLOUDY    58  56  95 NE14G21   30.20R
KENOSHA        LGT RAIN  60  59  96 NE10      30.19S VSB 1
FOND DU LAC    CLOUDY    61  57  87 NE13      30.26S
SHEBOYGAN      LGT RAIN  59  57  93 NE17      30.25S FOG
WEST BEND      RAIN      64  64 100 NE9       30.24S
JUNEAU         CLOUDY    59  55  89 N13       30.25S
$$

LSZ147-162-301500-
LAKE SUPERIOR

STATION/POSITION TIME  TEMP    WIND        PRES    WAVE
                       AIR SEA DIR/SP/G            HT/PER
                 (UTC) (F)     (DEG/KT/KT) (MB)    (FT/S)
W MID LAKE BUOY  1250   55 55   60/ 12/ 14 1031.1R   1/ 5
DEVILS ISLAND    1300   54      40/  8/  8 1031.8R
SAXON HARBOR     1300   53     160/  2/  5 1030.8S
$$

LMZ867-665-643>646-301500-
LAKE MICHIGAN

STATION/POSITION TIME  TEMP    WIND        PRES    WAVE
                       AIR SEA DIR/SP/G            HT/PER
                 (UTC) (F)     (DEG/KT/KT) (MB)    (FT/S)
CHAMBERS ISLAND  1300   61      10/ 17/ 20 1026.4S
S GREEN BAY BUOY 1300   62 62   50/ 17/ 21 1025.1
N MID LAKE BUOY  1250   62 65   70/ 19/ 23 1026.2F   4/ 5
NORTHPORT PIER   1300   62      50/ 12/ 18 1026.8
SISTER BAY       1208   62      30/  6/ 11   N/A
KEWAUNEE LAKESHO 1300   62      40/ 10/ 20 1024.6S
SHEBOYGAN LAKESH 1300   60      40/ 18/ 20 1024.0R
PORT WASHINGTON  1340   59      50/ 13/ 19 1024.4S
ATWATER BUOY     1300   57 53   40/ 12/ 16 1022.8F
MILWAUKEE LAKESH 1310   57      30/ 11/ 12   N/A
S MID LAKE BUOY  1250   62 68   60/ 21/ 27 1020.9F   5/ 6
KENOSHA   LAKESH 1300   61      50/ 17/ 18 1021.7F
$$

TC  - TEMPERATURE IN CELSIUS
VSB - VISIBILITY IN STATUTE MILES
WCI - WIND CHILL INDEX
HX  - HEAT INDEX





USA.gov is the U.S. government's official web portal to all federal, state and local government web resources and services.